Wind_Speed
18 19 21 26 27 26 30 24 19 15 16 10 5 5 6 7 6 13 18 16 24 29 32 31 23 17 19 19 20 22 25 21 19 15 8 11 13 15 17 17 18 19 15
17 19 23 26 25 25 30 26 18 17 20 10 3 7 6 7 8 15 14 18 24 30 33 32 27 19 15 17 23 25 25 21 15 12 16 12 11 13 11 10 11 11 13
18 21 21 24 24 26 29 28 19 18 14 14 4 7 9 8 9 13 13 16 23 28 32 37 29 23 20 20 26 26 24 19 15 15 18 10 11 6 3 5 9 10 13
15 18 18 21 25 25 29 29 22 15 17 12 5 7 8 7 10 14 19 16 22 27 34 38 33 22 23 25 27 25 21 18 14 10 9 10 8 5 8 10 10 12 15
16 19 18 21 24 24 28 29 24 16 16 18 8 11 4 10 7 11 17 20 21 26 33 35 32 26 25 26 25 24 20 17 17 7 4 5 8 6 11 15 11 14 17
23 25 21 22 23 24 27 27 23 15 12 17 11 9 6 10 10 12 17 21 19 28 34 29 32 28 26 25 23 20 14 22 20 8 6 4 8 8 3 10 15 17 18
31 23 20 22 22 24 26 26 26 15 12 17 11 10 7 8 9 14 18 20 22 31 33 27 37 31 22 22 19 20 16 21 23 15 12 10 13 15 12 10 16 18 16
27 17 23 23 26 24 25 27 29 22 13 17 10 7 7 9 14 17 18 19 21 28 34 26 31 28 21 23 22 21 19 19 21 21 14 12 8 7 12 13 17 15 14
21 22 24 27 28 25 26 28 28 20 14 13 13 11 10 8 12 15 18 16 21 27 28 23 29 28 18 22 24 19 17 19 11 13 13 12 9 8 5 11 13 12 17
27 29 36 31 27 26 30 30 27 25 17 11 13 15 11 12 8 12 17 18 20 24 26 24 25 24 22 22 21 20 19 17 19 15 17 15 13 9 8 10 14 7 18
35 32 33 25 26 27 31 30 28 27 20 11 15 17 15 15 11 12 17 16 16 20 26 26 23 20 19 21 23 18 18 15 13 12 14 12 9 9 9 11 11 9 15
30 35 25 24 27 29 33 29 27 27 20 16 18 15 16 18 18 16 13 12 13 19 17 23 32 19 17 21 22 24 19 13 11 8 10 13 11 9 10 12 12 14 12
39 35 21 31 28 31 33 29 29 26 20 18 21 21 22 18 14 12 8 16 13 15 20 22 28 15 13 16 16 17 22 19 16 11 9 11 13 9 11 12 15 14 15
40 34 37 40 33 32 29 30 28 25 21 20 21 26 27 17 14 13 9 14 12 19 17 16 14 13 10 13 18 19 19 19 20 15 12 12 14 13 8 10 11 11 15
41 40 41 43 33 34 33 32 27 25 20 19 17 24 21 20 17 17 11 12 15 18 13 16 13 13 9 12 15 15 19 21 21 22 18 16 17 14 12 12 11 6 12
45 45 45 41 38 36 36 28 23 23 19 15 15 16 21 19 14 16 14 13 14 13 12 14 12 10 8 9 10 14 19 23 23 22 21 21 18 15 16 14 13 11 11
40 41 44 42 40 37 33 25 24 20 18 14 13 14 14 12 14 11 7 14 11 12 7 9 9 10 15 8 7 13 20 23 22 21 21 22 22 23 22 23 23 21 21
41 33 39 36 35 34 26 22 21 17 12 14 9 10 11 13 11 12 9 13 11 10 3 3 8 6 6 6 5 11 15 18 20 21 20 21 23 24 24 26 27 27 27
38 36 30 32 30 29 23 20 16 14 6 14 12 9 11 10 11 14 16 16 10 6 3 3 7 6 6 7 6 6 11 14 17 19 19 18 19 22 22 23 23 24 26
29 37 33 28 24 21 17 12 12 15 8 6 15 13 9 13 17 17 15 15 7 10 5 4 6 4 2 5 3 6 8 10 13 17 17 14 16 18 19 20 20 21 23
19 21 22 22 18 14 12 9 7 14 14 11 8 14 15 15 12 11 12 10 10 9 6 6 4 2 3 5 2 1 3 11 11 13 16 11 13 13 15 16 17 16 20
16 17 18 17 13 12 7 10 15 13 14 11 12 14 13 17 11 12 9 14 10 10 10 5 4 1 2 3 2 4 5 7 9 11 11 7 9 11 12 14 14 14 15
14 15 14 11 15 16 7 15 18 13 12 11 11 15 10 11 13 15 16 14 11 8 13 10 5 5 4 2 4 4 4 4 7 4 9 4 6 7 10 11 11 11 12
8 9 11 11 17 16 11 12 14 12 10 13 17 16 13 14 16 14 15 14 18 12 11 15 13 9 8 3 4 5 10 4 4 7 6 8 6 3 5 8 12 6 8
7 8 7 16 18 18 12 12 12 12 12 13 12 12 13 19 20 18 19 18 17 20 18 14 20 16 12 9 9 9 9 8 2 2 1 4 6 5 4 5 8 6 4
4 7 6 13 17 18 15 14 11 10 10 13 11 8 10 11 16 19 22 22 20 22 22 19 16 24 16 11 10 11 9 7 4 4 2 3 5 2 3 2 4 7 6
Wind_Direction
347 338 341 351 359 1 2 359 358 14 4 345 331 0 80 63 53 31 28 25 21 12 8 3 357 347 343 347 351 342 340 332 320 311 310 320 315 304 294 299 297 302 327
335 331 337 349 358 0 3 1 6 13 2 2 69 88 70 60 31 17 21 10 12 5 359 355 350 340 351 342 341 335 335 325 315 306 311 318 319 301 304 298 310 336 329
321 330 332 344 353 3 4 5 352 10 2 355 92 64 74 58 28 17 358 346 352 353 351 350 347 338 341 356 347 344 338 325 304 299 310 329 355 2 1 354 355 352 339
321 340 342 342 344 354 2 4 354 2 357 359 340 69 54 35 17 6 3 343 352 356 356 4 352 350 350 352 352 345 336 340 326 320 337 347 41 60 55 25 23 356 345
316 327 334 339 339 349 357 2 360 352 344 357 321 8 19 9 346 357 357 357 350 357 351 353 4 352 344 347 355 345 355 14 349 355 31 331 97 54 6 2 12 358 353
307 318 319 327 338 347 351 357 358 342 330 350 329 337 12 354 0 354 352 351 1 358 356 360 2 355 350 354 356 7 37 27 5 13 103 130 109 104 159 306 358 7 354
300 303 324 328 334 342 345 350 354 343 315 336 307 312 316 332 0 354 342 346 359 358 1 2 358 356 6 7 15 30 7 11 32 43 101 112 93 81 57 30 358 3 338
321 300 321 324 327 333 340 342 344 341 325 315 299 300 279 307 315 329 329 339 357 2 1 9 6 18 16 35 38 34 16 25 38 67 79 98 85 59 15 18 2 347 339
303 284 316 324 324 326 332 337 340 334 312 302 287 265 266 322 308 314 324 345 355 359 0 7 19 11 24 22 31 36 31 42 38 65 82 79 72 42 18 19 7 36 42
300 292 303 316 318 319 327 330 332 327 309 284 281 260 266 285 308 325 330 332 341 355 355 1 1 8 8 25 26 39 40 52 55 64 68 70 74 57 26 15 1 44 31
277 283 300 310 319 317 320 323 324 321 311 268 270 283 261 270 277 317 318 324 338 359 9 13 347 12 28 23 28 37 48 43 49 64 65 58 55 30 22 5 11 18 16
300 301 301 308 313 313 314 315 319 313 301 270 253 244 265 259 278 311 313 319 328 357 32 28 6 26 32 38 42 48 44 50 49 63 38 37 37 43 45 25 28 19 16
284 288 292 310 307 309 309 310 317 307 293 282 268 234 249 250 281 282 298 318 330 13 3 345 345 23 22 37 44 48 44 49 52 36 34 37 46 39 36 40 34 28 25
279 279 285 301 302 302 303 308 308 299 290 281 273 228 231 232 273 260 300 310 343 8 359 1 14 25 31 39 54 54 37 45 48 41 37 27 32 35 18 24 25 39 13
277 282 286 291 294 296 297 299 301 293 287 288 260 221 218 225 260 261 287 305 313 339 342 359 4 14 34 41 43 44 42 39 41 39 43 50 41 38 32 31 26 2 347
282 282 282 286 291 292 294 295 289 289 291 280 239 215 224 240 236 262 275 301 299 316 335 358 21 31 28 52 50 36 32 40 36 43 49 50 48 37 39 46 40 35 44
277 278 282 283 286 286 287 286 279 278 297 238 221 214 228 228 231 269 258 283 303 308 329 30 34 49 39 353 23 46 46 41 37 39 46 46 53 56 62 61 56 56 59
275 276 287 282 283 277 278 277 277 279 277 223 193 188 214 230 247 231 231 269 290 294 296 304 7 28 43 343 30 48 50 43 37 40 47 54 60 67 65 59 53 51 57
272 276 278 282 271 269 272 271 270 271 200 204 209 252 228 228 250 249 265 248 266 256 147 47 42 354 78 50 7 21 26 48 45 41 42 59 65 70 61 57 58 58 55
282 268 278 273 260 260 263 260 268 199 183 216 200 180 223 223 221 227 256 263 230 216 216 155 41 64 240 344 103 27 4 38 55 47 42 53 69 68 61 50 49 63 66
295 277 270 258 252 257 236 211 193 210 202 196 223 213 227 238 233 236 237 220 194 201 227 227 335 187 22 5 48 275 340 7 14 40 46 43 75 70 66 57 51 64 67
292 277 267 261 250 212 180 217 207 216 214 217 236 231 241 228 223 230 217 201 223 236 239 218 215 75 299 324 8 37 29 51 5 12 8 25 86 95 78 65 49 59 72
292 278 248 233 208 176 183 227 228 209 223 219 236 233 233 211 219 220 213 225 227 253 230 209 172 252 183 296 335 336 334 354 359 18 322 15 86 92 90 69 45 53 80
285 291 261 207 190 183 198 217 222 217 252 234 230 229 232 230 220 229 217 244 243 231 224 231 228 263 232 263 163 280 281 303 341 45 46 332 81 121 96 73 69 65 86
247 275 224 187 197 202 208 204 220 225 244 211 207 230 247 234 239 240 240 239 248 240 237 247 244 236 242 236 240 241 272 261 216 119 103 346 301 46 46 89 95 91 94
237 246 221 198 202 208 224 223 226 220 211 211 231 272 252 242 243 251 250 253 245 246 245 258 246 236 239 234 243 224 209 232 235 234 261 247 358 338 338 347 142 136 128
Height
11027 11026 11025 11024 11022 11019 11015 11011 11007 11002 10999 10996 10993 10991 10990 10990 10990 10989 10988 10987 10985 10982 10978 10974 10970 10965 10961 10958 10955 10951 10948 10944 10942 10939 10937 10936 10935 10934 10934 10934 10933 10933 10932
11026 11025 11024 11022 11021 11019 11015 11011 11009 11004 11000 10998 10995 10992 10992 10992 10991 10991 10990 10988 10985 10982 10979 10974 10969 10965 10961 10958 10954 10950 10945 10941 10939 10936 10935 10933 10932 10931 10932 10932 10932 10932 10931
11025 11023 11021 11021 11020 11018 11015 11012 11008 11006 11001 10999 10997 10995 10995 10994 10993 10992 10991 10989 10986 10983 10980 10974 10969 10964 10961 10956 10952 10946 10942 10938 10936 10934 10933 10932 10929 10930 10932 10932 10931 10931 10930
11023 11021 11019 11018 11017 11015 11013 11011 11008 11006 11003 11000 10998 10997 10997 10995 10994 10993 10991 10990 10988 10985 10981 10975 10969 10964 10960 10955 10950 10945 10939 10935 10932 10931 10931 10930 10930 10931 10932 10932 10931 10930 10928
11021 11020 11019 11016 11015 11012 11010 11009 11007 11005 11003 11002 11000 10999 10998 10997 10995 10994 10992 10990 10989 10985 10981 10976 10969 10965 10960 10955 10949 10944 10938 10934 10929 10929 10929 10930 10930 10931 10933 10934 10932 10929 10927
11021 11020 11019 11015 11013 11011 11009 11007 11006 11004 11003 11001 11001 11000 11000 10998 10997 10995 10992 10991 10989 10984 10980 10974 10968 10963 10958 10955 10950 10944 10939 10935 10930 10926 10928 10931 10934 10934 10936 10936 10933 10929 10927
11018 11018 11018 11016 11012 11009 11007 11005 11004 11003 11002 11001 11001 11000 11000 10998 10997 10995 10993 10991 10989 10985 10980 10975 10969 10963 10959 10954 10950 10944 10942 10938 10933 10927 10930 10934 10936 10936 10936 10935 10933 10930 10927
11016 11016 11015 11013 11011 11008 11006 11004 11001 11000 11000 11000 10999 10998 10998 10998 10997 10995 10992 10991 10989 10986 10981 10976 10971 10966 10961 10956 10951 10946 10944 10941 10937 10935 10936 10936 10937 10937 10937 10935 10934 10932 10927
11014 11013 11011 11010 11008 11006 11004 11002 10999 10998 10998 10998 10997 10997 10997 10997 10996 10994 10993 10991 10989 10986 10981 10976 10972 10969 10964 10958 10952 10949 10947 10944 10942 10941 10941 10940 10939 10939 10939 10938 10936 10931 10927
11012 11011 11008 11007 11005 11004 11001 10999 10997 10997 10997 10996 10995 10995 10996 10996 10995 10994 10992 10991 10990 10986 10981 10977 10973 10970 10966 10962 10956 10953 10950 10948 10945 10944 10941 10941 10941 10943 10941 10937 10935 10931 10928
11009 11007 11006 11005 11003 11001 10999 10996 10994 10993 10993 10992 10993 10993 10994 10994 10993 10993 10991 10991 10990 10985 10981 10978 10974 10969 10967 10964 10959 10955 10953 10950 10948 10948 10946 10943 10942 10942 10941 10938 10935 10932 10929
11004 11004 11003 11000 10999 10997 10996 10993 10992 10990 10989 10989 10990 10989 10992 10991 10992 10992 10991 10990 10989 10987 10981 10978 10976 10971 10968 10965 10961 10958 10956 10954 10952 10951 10948 10944 10941 10940 10940 10938 10935 10932 10929
10999 10998 10997 10995 10994 10993 10991 10989 10987 10986 10985 10984 10985 10986 10988 10989 10990 10991 10990 10990 10989 10985 10981 10980 10978 10973 10971 10967 10964 10960 10959 10955 10953 10951 10949 10946 10942 10940 10938 10938 10935 10933 10930
10993 10993 10991 10990 10991 10989 10986 10984 10982 10981 10980 10980 10978 10981 10983 10987 10988 10989 10988 10989 10987 10985 10983 10980 10977 10974 10973 10969 10966 10961 10961 10957 10954 10952 10949 10946 10943 10942 10941 10939 10937 10935 10932
10986 10985 10986 10986 10986 10983 10982 10980 10977 10976 10976 10974 10974 10977 10980 10983 10986 10987 10987 10987 10987 10986 10983 10980 10977 10975 10972 10970 10967 10965 10964 10960 10956 10954 10949 10946 10944 10942 10941 10941 10940 10938 10934
10977 10978 10980 10981 10979 10978 10977 10975 10972 10970 10971 10970 10972 10976 10979 10982 10984 10983 10984 10985 10985 10986 10984 10982 10977 10974 10973 10972 10970 10969 10965 10960 10959 10956 10952 10950 10945 10944 10943 10942 10940 10938 10935
10969 10970 10971 10972 10972 10972 10971 10969 10968 10967 10968 10967 10970 10973 10977 10979 10980 10980 10982 10984 10984 10984 10983 10982 10978 10976 10973 10972 10970 10969 10964 10960 10961 10958 10955 10953 10949 10946 10946 10944 10942 10940 10938
10961 10963 10964 10964 10964 10965 10964 10964 10963 10963 10964 10966 10970 10973 10975 10976 10978 10979 10979 10982 10983 10983 10983 10981 10979 10976 10975 10974 10971 10969 10966 10965 10964 10962 10959 10957 10953 10952 10952 10949 10948 10947 10944
10952 10955 10956 10957 10957 10957 10959 10959 10960 10960 10962 10965 10969 10970 10972 10973 10976 10977 10976 10979 10980 10982 10981 10981 10980 10978 10976 10974 10974 10972 10970 10966 10966 10965 10964 10961 10959 10957 10957 10956 10954 10953 10952
10947 10948 10950 10949 10950 10952 10954 10956 10957 10959 10960 10965 10967 10969 10970 10971 10973 10974 10975 10976 10978 10979 10979 10979 10979 10978 10978 10977 10975 10974 10972 10971 10968 10967 10966 10965 10964 10963 10962 10963 10962 10959 10957
10943 10942 10943 10945 10946 10948 10951 10954 10956 10958 10960 10962 10965 10967 10968 10970 10972 10972 10972 10973 10976 10977 10977 10978 10977 10977 10975 10976 10974 10975 10974 10973 10972 10971 10968 10970 10968 10968 10967 10968 10968 10966 10963
10941 10940 10940 10942 10944 10947 10951 10954 10954 10956 10958 10959 10961 10964 10965 10968 10969 10970 10971 10972 10974 10976 10976 10975 10976 10977 10975 10975 10975 10975 10974 10973 10975 10974 10974 10974 10971 10971 10973 10973 10974 10972 10970
10940 10940 10940 10941 10944 10947 10951 10952 10954 10954 10955 10957 10958 10961 10963 10965 10967 10968 10969 10972 10973 10973 10974 10975 10975 10975 10975 10975 10975 10975 10975 10975 10975 10977 10977 10975 10973 10976 10977 10977 10978 10977 10975
10939 10938 10938 10938 10943 10946 10949 10950 10951 10952 10953 10954 10956 10958 10961 10962 10964 10965 10967 10968 10970 10970 10971 10972 10973 10973 10974 10973 10974 10975 10976 10976 10976 10977 10975 10975 10975 10978 10979 10979 10980 10983 10981
10938 10938 10937 10939 10943 10946 10947 10949 10949 10950 10950 10952 10954 10955 10957 10958 10960 10962 10964 10966 10967 10967 10969 10969 10970 10972 10971 10973 10974 10974 10975 10975 10975 10976 10975 10975 10976 10979 10980 10980 10981 10984 10985
10936 10936 10937 10938 10941 10944 10945 10947 10948 10949 10949 10951 10953 10953 10953 10955 10957 10958 10959 10960 10962 10963 10964 10965 10965 10967 10969 10970 10971 10971 10971 10973 10973 10975 10974 10976 10977 10978 10979 10980 10982 10982 10985